World > North America > United States > New York > Ballston Spa   Village of Ballston Spa, NY

Ballston Spa, NY Hourly Weather Updates

Feedback E-mail the Weather

Quick WX

Ballston Spa, NY Weather Maps

°F °C°F °C
Ballston Spa Weather Map
UTC Time: 3/3/2024, 12:28
Your Time:

Ballston Spa, NY Regional Weather

Expires:202403031300;;323424
ASUS41 KALY 031210
RWRALY

NEW YORK STATE HOURLY WEATHER ROUNDUP
NATIONAL WEATHER SERVICE ALBANY NY
700 AM EST SUN MAR 03 2024

NOTE: "FAIR" INDICATES FEW OR NO CLOUDS BELOW 12,000 FEET WITH NO
SIGNIFICANT WEATHER AND/OR NO OBSTRUCTIONS TO VISIBILITY.


NYZ032-033-038>043-046>054-057>066-NYZ062>081-082-084-031300-
EAST

  
CITY           SKY/WX    TMP DP  RH WIND       PRES   REMARKS
ALBANY         MOCLDY    41  39  93 NE5       30.18R                  
GLENS FALLS    CLOUDY    39  39 100 E5        30.18R FOG              
POUGHKEEPSIE   CLOUDY    47  44  90 NW3       30.15R                  
NEWBURGH       CLOUDY    45  45 100 N5        30.14R VSB 3/4          
MONTGOMERY     FOG       34  33  96 CALM      30.14R VSB 1/4          
WHITE PLAINS   MOCLDY    47  43  86 NW13      30.13R                  
ISLIP          CLOUDY    47  45  93 NW10      30.11R                  
NEW YORK CITY  MOCLDY    47  43  86 NW7       30.15R                  
CENTRAL PARK   CLOUDY    50  29  44 VRB5      30.17R                  
$$


SKY/WX - Weather  TMP - Temperature  DP - Dew Point  RH - Humidity
WIND - Wind Direction/Speed PRES - Barometric Pressure VSB - Visibility
WCI - Wind Chill Index E13G22 Wind - East Wind 13 mph/Gusts of 22 mph

Trending Headlines

Trending Entertainment Headlines

Ballston Spa Radar Loop

Use the map search tool if you want to place a location marker on the radar map...

Ballston Spa Quick Facts

National Two Day Weather Forecast


E-mail the Ballston Spa Weather Forecast

Voice your opinion or tell us about page issues...